SL-14 R/B

Satellite information

Favourite Embed

Satellite Type and Status

ROCKET BODYIN ORBIT

Key statistics

Satellite SL-14 R/B at a glance.

Uptime

15795

Days in orbit

Revolutions

≈ 14.9

Per day

Orbit

LEO

Low Earth Orbit

Inclination

82.6

Latest

Satellite identification and parameters

Extended collection of information and parameters for SL-14 R/B.

Object identification

Identified? True

Debris? False

Object name: SL-14 R/B

International designator: 1982-092B

Object number (NORAD): 13553

Object ID (CCSDS): 13553

Country: COMMONWEALTH OF INDEPENDENT STATES (CIS)

Current information (Y/N): Y

RCS size: LARGE

Orbital parameters

Period: 96.868 minutes

Inclination: 82.5685 deg

SMA: 6986.847 km

Apoapsis: 622.066 km

Periapsis: 595.358 km

RAAN: 223.2615 deg

Eccentricy: 0.00191126

Argument of periapsis: 229.0941 deg

Mean anomaly: 245.7684 deg

Mean motion: 14.86554793 rev/day

Mean motion (dot): 0.00000744 rev/day2

B* drag term: 0.000081043005 1/REarth

Two-line elements (TLE)

Creation date: Dec. 12, 2025, 10:14 a.m.

Reference frame: TEME

Reference center: EARTH

Epoch: Dec. 12, 2025, 3:39 a.m. UTC

TLE line 0: 0 SL-14 R/B

TLE line 1: 1 13553U 82092B 25346.15209330 .00000744 00000-0 81043-4 0 9996

TLE line 2: 2 13553 82.5685 223.2615 0019113 229.0941 245.7684 14.86554793315924

Live tracking on map

Real-time ground track for satellite SL-14 R/B.

In-orbit conjunctions

A list of the most updated potential collisions computed for object SL-14 R/B.

Target Orbit TCA Probability of collision Miss distance Type
SL-8 DEB SSO 2025-11-14 16:28:04 0.0002030779 917.0 (m) DEBRIS
CZ-6A DEB SSO 2025-05-21 08:43:06 0.0002214424 416.0 (m) DEBRIS
FENGYUN 1C DEB SSO 2025-03-09 04:24:06 0.0001480575 343.0 (m) DEBRIS
CZ-6A DEB LEO 2024-11-11 09:53:39 0.00105137 606.0 (m) DEBRIS
DELTA 1 DEB (YO) LEO 2024-10-13 13:50:00 0.0001438539 141.0 (m) DEBRIS

Associated space launch

Tselina-D satellites provided detailed observation of radio sources detected by the smaller Tselina-O satellites as part of the Tselina ELINT system.

SL-14 R/B was lifted into orbit during the mission ‘Tsiklon-3 | Tselina-D 38’, on board a Tsiklon-3 space rocket.

The launch took place on Sept. 16, 1982, 4:55 a.m. from 32/2.

For more information about the launch, click the button.

Launch to space Tsiklon-3 | Tselina-D 38
Tsiklon-3 | Tselina-D 38

Agency: N/A

Status: Launch Successful

Launch date: Sept. 16, 1982, 4:55 a.m. UTC

Rocket: Tsiklon-3

Launch pad: 32/2

Location: Plesetsk Cosmodrome, Russian Federation

...

Latest news about this satellite

There are no fresh news available about this satellite. Check back as we update our databases every day.


Newsletter sign-up

Weekly statistics, charts and insights to help you stay on top of the space industry.